Vertical_Velocity
2 1 -1 2 1 0 1 -1 1 -0 -0 -1 -1 -1 -3 -1 -2 0 -2 -1 -1 -1 -2 -2 -1 -3 -4 -3 -5 -3 -2 -2 -2 -3 -2 -4 -4 -2 0 1 0 -1 -1
-1 1 -2 -1 1 -1 0 -1 1 1 -1 -1 -0 0 -1 -0 -3 -1 -1 -1 -1 -1 -1 -1 0 -0 -1 -3 -4 -4 1 -1 -2 -3 -3 -3 -4 -4 -4 -2 -4 -3 -1
-0 0 -0 -1 -1 -1 -1 -0 -1 -0 -0 -1 -1 2 -1 -0 -0 -1 -2 -1 -1 -1 -1 0 -0 -0 0 1 1 0 2 1 2 2 3 1 2 -1 2 -0 -4 -2 -3
0 0 -2 1 1 -0 -2 1 -1 -0 -0 -1 -0 1 -1 -2 -1 -1 -1 -2 -0 -0 0 1 1 1 1 1 -0 0 1 1 1 1 1 0 1 3 1 1 -0 -0 -1
3 -0 -1 -1 -1 0 -0 -0 -2 -1 -0 -1 0 0 0 -1 -1 -1 -1 -2 -1 0 0 1 -0 -0 -0 -0 0 0 -1 -1 -1 -1 -0 -1 -1 -0 1 2 2 1 0
1 -1 -2 -0 -2 0 -1 0 0 -2 -1 -1 -0 1 -1 -0 -2 -2 -1 -1 -1 -0 -0 -0 0 -1 -0 -0 -1 -0 -0 -0 -1 -0 1 -0 -1 -1 -1 -1 -2 -2 -2
-2 2 -2 -3 -2 -1 -0 -1 1 -2 -1 -1 -1 0 1 -0 -1 -2 -2 -0 -1 -1 -0 0 -0 -1 -1 -1 -0 -1 -1 -1 -1 -1 -0 1 0 -1 -0 0 1 1 1
-1 0 -1 -2 -3 -1 -0 -1 1 -2 -0 -1 -1 -0 -0 -0 -1 -1 -0 0 -1 -0 1 -0 -0 1 1 -0 -0 -0 1 0 1 -1 -1 -1 -1 -0 -1 -1 -2 -2 0
-1 -2 1 -3 -2 -1 0 -0 1 -2 -2 -0 0 -0 0 -1 -4 -2 -1 -1 -0 -1 -1 -1 -1 -1 -1 -0 -1 -1 -1 -0 0 0 0 0 -0 -1 -2 -1 -1 1 -1
-1 -0 -0 -1 -1 -1 -0 1 1 0 -0 -0 -0 0 0 0 -1 -5 -1 0 1 -1 -0 1 -1 0 1 1 1 -1 0 0 1 1 2 2 2 2 2 1 1 1 0
-0 -0 -2 1 -2 -0 1 0 0 0 -1 -0 -0 -0 1 0 0 0 -9 -7 1 2 1 -1 -1 -1 -1 -1 1 1 2 1 1 2 1 1 -0 0 -1 -0 1 -1 -0
-0 -3 -1 1 -1 1 1 -0 -0 0 -1 -1 -1 -1 1 -1 -0 2 -2 -3 -4 -7 -2 1 -2 -3 0 1 -0 0 3 1 1 1 2 1 -0 -1 -1 -0 -2 -1 -2
-3 -1 0 0 -0 -0 -2 0 -0 -1 -1 -1 -0 2 3 2 1 1 2 -0 -4 -4 -12 -2 1 0 1 1 1 3 2 2 3 3 3 2 2 2 1 -0 1 1 0
-1 0 -2 -0 -0 -2 -1 -1 0 0 -0 -1 -0 -0 1 2 2 3 3 5 -8 -6 -6 4 -0 1 3 3 2 1 -2 3 2 2 3 1 2 3 2 2 2 1 1
1 -1 -4 -2 0 -1 -0 -1 0 2 -1 -0 1 1 -1 2 2 3 3 5 10 -1 -15 -2 -9 7 1 -2 -0 -1 -2 -1 1 3 2 3 2 2 3 2 2 1 1
1 -3 0 1 1 -1 -0 1 2 1 -1 -0 -1 0 2 -0 2 3 3 4 6 10 8 -18 -5 -5 3 1 -2 -0 -0 1 -1 -2 -1 0 1 1 1 1 1 2 2
-2 -0 1 1 1 0 0 1 0 -2 -0 0 0 -2 2 -0 -0 2 4 2 -0 6 5 -6 -8 -17 -11 -8 -5 2 1 -0 -2 -1 -2 -2 -1 -1 -0 3 1 0 1
-1 1 2 2 1 -0 -1 -1 -1 -1 -1 1 1 -2 0 1 2 2 0 -3 1 2 4 2 -1 -1 -5 -2 -1 -6 -5 2 -0 -2 0 2 2 1 3 0 -1 -0 0
1 1 1 0 -1 -0 0 -1 -1 -0 -1 -0 -1 -1 -2 -1 -2 -1 1 -0 1 2 3 3 1 2 1 -3 -8 -5 -2 -4 -3 -1 -2 -2 -0 -1 -1 -2 -0 -1 0
1 0 -0 -0 -0 -1 -1 -1 -1 -1 -0 2 3 4 2 0 -1 -3 -1 -1 -1 -1 -1 -4 -3 -0 1 -3 -6 -7 -10 -9 -12 -11 -5 -5 -6 -2 0 1 -1 2 -1
-0 0 0 -0 -0 -0 1 1 0 -1 -1 -1 2 2 0 -1 0 2 0 -3 -2 -0 2 0 -4 -3 0 -1 1 1 -2 1 -0 -4 -7 -8 -8 -4 -3 -0 -2 -1 2
0 -1 -0 1 1 3 1 1 2 -2 -1 -1 -5 -5 -2 -0 2 4 3 4 8 3 2 -1 0 0 -0 2 -1 -4 1 2 -15 -3 -3 -8 -1 -9 -14 -7 3 3 1
0 1 1 -2 0 2 -1 -0 0 -1 -1 -1 -1 -0 -3 -3 -3 -2 -1 2 2 6 7 7 4 7 -4 2 4 0 2 1 -4 -13 10 -8 6 -9 -7 -10 -9 3 -0
-0 -2 -0 -0 -3 -0 -0 0 1 -0 -1 2 2 1 0 -2 -3 -4 -4 -6 -3 -3 -5 -2 2 -2 3 2 9 9 8 5 -7 -19 22 -8 -2 -9 2 -14 -9 -5 5
0 -1 -2 -0 -1 -0 -1 -2 -2 -2 -3 -1 -1 -2 -1 -1 -2 -3 -1 -2 -3 -6 3 3 -0 -2 -4 -1 10 15 -6 2 -13 -22 27 0 -13 -8 8 -4 -5 -10 2
-1 -1 1 2 -0 -4 -1 -2 -1 -1 -2 -4 -6 -5 0 -1 -0 -1 -0 1 -5 -3 -1 -9 -7 -9 -1 -4 5 11 3 -2 6 -28 24 5 -4 16 -17 -5 -6 -3 -4
Height
1534 1533 1534 1534 1534 1534 1534 1533 1533 1533 1533 1532 1531 1531 1530 1530 1529 1529 1528 1528 1529 1529 1529 1528 1527 1528 1528 1528 1526 1525 1524 1524 1523 1522 1521 1521 1519 1519 1518 1517 1516 1515 1515
1533 1533 1533 1534 1534 1534 1533 1533 1532 1532 1532 1531 1531 1529 1529 1529 1529 1528 1529 1529 1529 1528 1528 1527 1527 1527 1526 1525 1524 1523 1523 1522 1521 1519 1518 1518 1516 1515 1515 1515 1513 1513 1513
1533 1533 1533 1533 1533 1533 1532 1531 1531 1531 1531 1530 1529 1528 1528 1528 1528 1528 1529 1528 1528 1528 1528 1527 1527 1526 1525 1524 1523 1522 1521 1520 1518 1517 1516 1515 1514 1513 1513 1512 1512 1511 1511
1532 1532 1533 1532 1532 1532 1532 1531 1531 1531 1530 1529 1529 1528 1528 1527 1528 1528 1528 1528 1528 1527 1527 1526 1525 1524 1523 1522 1521 1520 1518 1517 1516 1515 1513 1512 1511 1511 1510 1509 1509 1508 1507
1531 1531 1531 1532 1532 1532 1531 1531 1531 1530 1530 1529 1528 1527 1527 1526 1526 1526 1526 1526 1526 1526 1525 1524 1523 1522 1521 1520 1519 1518 1517 1515 1514 1513 1512 1510 1509 1508 1507 1506 1505 1504 1503
1530 1530 1531 1531 1532 1531 1531 1531 1530 1529 1529 1528 1527 1526 1526 1525 1524 1524 1525 1524 1524 1524 1523 1522 1521 1520 1519 1518 1517 1516 1515 1513 1512 1510 1509 1508 1507 1506 1505 1503 1502 1501 1500
1530 1530 1530 1531 1531 1531 1531 1530 1529 1528 1528 1527 1526 1525 1524 1523 1522 1523 1523 1523 1522 1522 1521 1520 1519 1517 1516 1516 1514 1513 1512 1510 1509 1507 1506 1505 1504 1503 1502 1501 1500 1499 1498
1529 1530 1530 1530 1531 1531 1530 1529 1529 1528 1527 1527 1526 1523 1522 1522 1521 1521 1521 1520 1520 1520 1519 1518 1516 1515 1514 1512 1511 1510 1508 1507 1505 1504 1503 1502 1500 1499 1499 1498 1497 1495 1495
1529 1530 1530 1530 1530 1530 1529 1529 1528 1527 1526 1526 1525 1525 1522 1521 1519 1518 1518 1518 1517 1517 1516 1515 1514 1513 1511 1509 1508 1506 1505 1503 1502 1500 1499 1497 1496 1495 1495 1494 1493 1492 1491
1528 1528 1529 1528 1529 1529 1528 1527 1526 1525 1525 1524 1524 1523 1523 1522 1520 1517 1516 1515 1514 1513 1512 1511 1510 1509 1507 1506 1504 1502 1501 1499 1498 1496 1495 1493 1492 1491 1491 1490 1490 1488 1487
1527 1527 1527 1527 1527 1527 1526 1526 1525 1524 1523 1523 1522 1522 1521 1519 1519 1517 1511 1511 1511 1510 1508 1506 1504 1503 1502 1500 1499 1497 1496 1495 1493 1492 1490 1489 1488 1487 1487 1487 1486 1484 1483
1525 1526 1525 1525 1525 1524 1524 1524 1523 1522 1521 1521 1520 1519 1518 1517 1516 1515 1510 1506 1503 1501 1501 1500 1499 1498 1496 1495 1493 1492 1491 1489 1488 1487 1485 1484 1483 1482 1481 1481 1481 1480 1478
1524 1524 1524 1524 1523 1522 1522 1522 1521 1520 1519 1519 1518 1517 1516 1515 1513 1511 1508 1504 1499 1494 1492 1493 1493 1492 1491 1489 1488 1486 1485 1484 1483 1482 1480 1479 1478 1476 1475 1475 1474 1474 1473
1522 1522 1522 1522 1521 1521 1521 1520 1519 1518 1517 1516 1515 1514 1513 1512 1510 1508 1505 1502 1495 1491 1488 1485 1485 1486 1485 1484 1482 1480 1478 1477 1476 1475 1474 1473 1472 1471 1470 1469 1468 1467 1466
1520 1520 1520 1521 1520 1520 1519 1518 1517 1516 1515 1514 1513 1511 1509 1508 1506 1504 1501 1499 1496 1489 1483 1479 1479 1478 1478 1477 1475 1473 1470 1468 1467 1466 1466 1465 1464 1463 1462 1461 1460 1460 1459
1519 1519 1520 1519 1519 1518 1518 1517 1516 1514 1512 1511 1510 1508 1506 1504 1501 1499 1496 1493 1491 1486 1477 1478 1473 1471 1469 1467 1467 1465 1463 1460 1458 1457 1455 1455 1454 1453 1452 1451 1451 1450 1450
1518 1518 1519 1518 1518 1517 1516 1515 1513 1511 1510 1508 1505 1503 1501 1498 1495 1492 1489 1486 1483 1480 1471 1466 1466 1465 1461 1458 1457 1454 1452 1450 1448 1448 1446 1445 1443 1442 1441 1441 1440 1440 1440
1516 1517 1518 1517 1516 1515 1514 1513 1511 1509 1506 1504 1501 1499 1496 1492 1489 1486 1482 1479 1475 1473 1467 1457 1457 1455 1453 1451 1447 1443 1442 1441 1437 1435 1434 1433 1431 1430 1430 1429 1429 1429 1429
1516 1516 1516 1515 1515 1513 1512 1509 1507 1505 1502 1500 1497 1493 1490 1485 1481 1478 1475 1471 1468 1464 1460 1453 1446 1446 1443 1442 1438 1435 1431 1428 1427 1426 1424 1422 1420 1419 1418 1418 1418 1418 1418
1515 1515 1515 1514 1512 1510 1508 1505 1503 1500 1497 1495 1491 1488 1484 1480 1477 1473 1469 1466 1461 1456 1453 1448 1442 1438 1435 1434 1431 1427 1423 1421 1417 1416 1414 1412 1411 1409 1407 1407 1406 1406 1406
1514 1514 1513 1511 1509 1507 1504 1501 1498 1495 1491 1488 1485 1482 1479 1476 1473 1468 1463 1458 1455 1450 1446 1441 1436 1431 1428 1426 1424 1421 1416 1412 1409 1409 1405 1402 1401 1399 1398 1396 1395 1394 1395
1512 1512 1510 1509 1506 1503 1500 1497 1492 1489 1486 1482 1479 1476 1473 1469 1465 1461 1457 1454 1450 1445 1440 1436 1430 1426 1421 1420 1416 1412 1408 1405 1399 1402 1397 1393 1393 1388 1388 1386 1383 1383 1383
1510 1509 1507 1504 1502 1498 1495 1491 1487 1484 1480 1476 1472 1468 1464 1461 1458 1453 1448 1444 1441 1438 1434 1430 1424 1420 1415 1413 1410 1405 1402 1399 1393 1391 1390 1383 1384 1378 1377 1374 1375 1373 1371
1507 1505 1503 1500 1497 1494 1490 1486 1482 1477 1473 1470 1466 1462 1457 1453 1450 1444 1438 1434 1431 1428 1425 1421 1416 1411 1408 1405 1403 1399 1394 1390 1385 1380 1380 1375 1372 1368 1367 1364 1362 1362 1360
1503 1501 1499 1495 1492 1489 1485 1480 1475 1471 1466 1462 1458 1454 1450 1445 1441 1438 1433 1427 1422 1419 1417 1414 1409 1405 1401 1398 1396 1392 1387 1384 1376 1370 1368 1369 1362 1358 1356 1353 1350 1349 1349
1499 1496 1494 1491 1488 1484 1480 1476 1471 1464 1458 1453 1449 1444 1441 1437 1434 1431 1426 1421 1414 1410 1406 1401 1397 1394 1391 1388 1387 1385 1381 1376 1371 1363 1360 1361 1355 1353 1346 1342 1340 1339 1338